Regional Weather Roundup
Issued by NWS

Home | Current Version | Previous Version | Text Only | Print | Product List | Glossary Off
Versions: 1 2 3 4 5 6 7 8 9 10 11 12 13 14 15 16 17 18 19 20 21 22 23 24 25 26 27 28 29 30 31 32 33 34 35 36 37 38 39 40 41 42 43 44 45 46 47 48 49 50

000
ASUS43 KIND 282209
RWRIN

WEATHER ROUNDUP FOR INDIANA
NATIONAL WEATHER SERVICE INDIANAPOLIS IN
500 PM EST SUN DEC 28 2014

NOTE: "FAIR" INDICATES FEW OR NO CLOUDS BELOW 12,000 FEET WITH NO
SIGNIFICANT WEATHER AND/OR OBSTRUCTIONS TO VISIBILITY.

* - STATION DOES NOT REPORT WEATHER SUCH AS PRECIPITATION OR FOG.

+ - STATION NOT QUALITY CONTROLLED BY THE NATIONAL WEATHER SERVICE.
    USE DATA WITH CAUTION...ESPECIALLY DEWPOINT AND RELATIVE
    HUMIDITY OBSERVATIONS.

INZ001>003-010>013-019-020-282300-
NORTHWEST INDIANA

CITY           SKY/WX    TMP DP  RH WIND       PRES   REMARKS
GARY /AIRPORT/ PTCLDY    34  10  37 W7        30.19R WCI  28
KNOX *+        CLEAR     32  21  63 W8        30.18S WCI  25
LA PORTE +     CLEAR     34  20  57 SW5       30.18S WCI  30
MICHIGAN CITY+ CLEAR     32   3  29 W3        30.19R
MONTICELLO +   PTCLDY    29  24  82 W3        30.19S
RENSSELAER +   CLEAR     32  28  86 SW5       30.20R WCI  27
VALPARAISO     CLEAR     32  21  64 SW7       30.19R WCI  26

$$

LMZ046-743>745-282300-
SOUTHERN LAKE MICHIGAN

STATION/POSITION TIME  TEMP WIND        PRES
                       AIR  DIR/SP/G
                 (UTC) (F)  (DEG/KT/KT) (MB)
MICHIGAN CITY    2200   32  230/ 10/ 11   N/A

$$

INZ004-005-014>016-021>024-282300-
NORTH CENTRAL INDIANA

CITY           SKY/WX    TMP DP  RH WIND       PRES   REMARKS
GOSHEN         PTCLDY    33  25  72 SW9       30.17R WCI  25
LOGANSPORT +   MOCLDY    30  25  80 W5        30.20R WCI  25
PERU/GRISSOM   MOCLDY    30  28  93 W6        30.18S WCI  24
ROCHESTER +    PTCLDY    32  28  86 W6        30.19S WCI  26
SOUTH BEND     CLEAR     32  21  64 NW5       30.18R WCI  27
WARSAW +       MOCLDY    32  27  80 W7        30.17S WCI  26

$$

INZ006>009-017-018-025>027-282300-
NORTHEAST INDIANA

CITY           SKY/WX    TMP DP  RH WIND       PRES   REMARKS
ANGOLA *+      CLEAR     34  25  69 W5        30.14R WCI  30
AUBURN +       MOCLDY    32  25  74 W8        30.17R WCI  25
FORT WAYNE     MOCLDY    33  27  78 W5        30.18R WCI  29
HUNTINGTON +   CLOUDY    32  24  72 W6        30.17S WCI  26

$$

INZ028-029-035-036-043>045-051>053-282300-
WEST CENTRAL INDIANA

CITY           SKY/WX    TMP DP  RH WIND       PRES   REMARKS
GREENCASTLE +  CLOUDY    30  19  64 CALM      30.20R
LAFAYETTE      PTCLDY    28  23  81 NW5       30.21R WCI  23
TERRE HAUTE    CLOUDY    30  22  72 NW7       30.21R WCI  23

$$

INZ030>032-037>040-046>048-054>057-064-065-282300-
CENTRAL INDIANA

CITY           SKY/WX    TMP DP  RH WIND       PRES   REMARKS
CP ATTERBURY + CLOUDY    32  28  86 MISG      30.19R
COLUMBUS       CLOUDY    32  27  80 NW7       30.20R WCI  26
FRANKFORT +    CLOUDY    30  25  83 W3        30.21R
INDIANAPOLIS   CLOUDY    29  23  78 NW6       30.19R WCI  23
-EAGLE CREEK   CLOUDY    30  23  75 NW6       30.19R WCI  24
KOKOMO *+      CLOUDY    30  23  74 W5        30.18S WCI  25
MARION +       CLOUDY    31  26  81 W7        30.18S WCI  24
MT COMFORT *+  CLOUDY    30  27  86 NW7       30.19R WCI  23
SHELBYVILLE    CLOUDY    34  26  72 N6        30.18R WCI  29
ZIONSVILLE +   CLOUDY    31  24  76 W6        30.19R WCI  25

$$

INZ033-034-041-042-049-050-058-059-282300-
EAST CENTRAL INDIANA

CITY           SKY/WX    TMP DP  RH WIND       PRES   REMARKS
MUNCIE         CLOUDY    32  26  78 NW9       30.17R WCI  24

$$

INZ060-061-067>069-081>083-085>088-282300-
SOUTHWEST INDIANA

CITY           SKY/WX    TMP DP  RH WIND       PRES   REMARKS
EVANSVILLE     CLOUDY    36  28  73 N7        30.23R
HUNTINGBURG *+ CLOUDY    34  27  75 N6        30.21R WCI  29
WASHINGTON +   CLOUDY    33  26  76 NW6       30.22R WCI  27

$$

INZ062-063-066-070>080-084-089>092-282300-
SOUTH CENTRAL AND SOUTHEAST INDIANA

CITY           SKY/WX    TMP DP  RH WIND       PRES   REMARKS
BLOOMINGTON    CLOUDY    32  28  85 CALM      30.19R

$$




USA.gov is the U.S. government's official web portal to all federal, state and local government web resources and services.